Location: Bernadets
(43.3537°N, 0.3167°E)
Time: 11:54:31
(UTC+00:00)

SL-16 R/B - Pass Details

Date: 24 October 2021
Orbit: 842 x 846 km, 71.0° (Epoch: 08 December)

Event Time Altitude Azimuth Distance (km) Brightness Sun altitude
Rises 17:49:46 0° 195° (SSW) 3,385 5.7 -9.5°
Reaches altitude 10° 17:52:12 10° 193° (SSW) 2,454 4.9 -9.9°
Maximum altitude 17:57:48 70° 111° (ESE) 899 2.2 -10.9°
Drops below altitude 10° 18:03:26 10° 29° (NNE) 2,473 4.3 -11.9°
Sets 18:05:54 0° 27° (NNE) 3,413 5.0 -12.4°
